Regional Weather Roundup
Issued by NWS

Home | Current Version | Previous Version | Graphics & Text | Print | Product List | Glossary On
Versions: 1 2 3 4 5 6 7 8 9 10 11 12 13 14 15 16 17 18 19 20 21 22 23 24 25 26 27 28 29 30 31 32 33 34 35 36 37 38 39 40 41 42 43 44 45 46 47 48 49 50
000
ASUS43 KIND 251959
RWRIN

WEATHER ROUNDUP FOR INDIANA
NATIONAL WEATHER SERVICE INDIANAPOLIS IN
400 PM EDT SUN SEP 25 2016

NOTE: "FAIR" INDICATES FEW OR NO CLOUDS BELOW 12,000 FEET WITH NO
SIGNIFICANT WEATHER AND/OR OBSTRUCTIONS TO VISIBILITY.

* - STATION DOES NOT REPORT WEATHER SUCH AS PRECIPITATION OR FOG.

+ - STATION NOT QUALITY CONTROLLED BY THE NATIONAL WEATHER SERVICE.
    USE DATA WITH CAUTION...ESPECIALLY DEWPOINT AND RELATIVE
    HUMIDITY OBSERVATIONS.

INZ001>003-010>013-019-020-252100-
NORTHWEST INDIANA

CITY           SKY/WX    TMP DP  RH WIND       PRES   REMARKS
GARY /AIRPORT/ PTSUNNY   86  66  51 SE9       29.97F

$$

LMZ046-743>745-252100-
SOUTHERN LAKE MICHIGAN

STATION/POSITION TIME  TEMP    WIND        PRES    WAVE
                       AIR SEA DIR/SP/G            HT
                 (UTC) (F)     (DEG/KT/KT) (MB)    (FT)
BURNS HARBOR     1900   82     180/  8/ 16 1016.3F
MICHIGAN CITY    1900   81     140/  7/ 10   N/A
5NW MICH CITY    1900   75 69  160/  6/  8   N/A     1

$$

INZ004-005-014>016-021>024-252100-
NORTH CENTRAL INDIANA

CITY           SKY/WX    TMP DP  RH WIND       PRES   REMARKS
GOSHEN         SUNNY     81  62  52 SE10      30.04F
SOUTH BEND     MOSUNNY   82  66  58 S13       30.02F

$$

INZ006>009-017-018-025>027-252100-
NORTHEAST INDIANA

CITY           SKY/WX    TMP DP  RH WIND       PRES   REMARKS
ANGOLA *+      MOSUNNY   77  61  57 SE10      30.07F
FORT WAYNE     PTSUNNY   82  64  54 SE6       30.06F
KENDALLVILLE + SUNNY     79  60  52 SE7       30.07F

$$

INZ028-029-035-036-043>045-051>053-252100-
WEST CENTRAL INDIANA

CITY           SKY/WX    TMP DP  RH WIND       PRES   REMARKS
CRAWFORDSVL +  MOSUNNY   85  65  51 S6        30.02F
GREENCASTLE +  SUNNY     84  72  65 S6        30.04F
LAFAYETTE      MOSUNNY   87  65  47 VRB6      29.99F
TERRE HAUTE    MOSUNNY   87  66  49 S8        30.01F

$$

INZ030>032-037>040-046>048-054>057-064-065-252100-
CENTRAL INDIANA

CITY           SKY/WX    TMP DP  RH WIND       PRES   REMARKS
COLUMBUS       MOSUNNY   86  66  51 W7        30.05F
INDIANAPOLIS   PTSUNNY   85  66  53 SW8       30.03F
-EAGLE CREEK   MOSUNNY   86  65  49 S7        30.03F
MT COMFORT *+  MOSUNNY   86  63  45 CALM      30.06F
SHELBYVILLE    MOSUNNY   86  63  45 SW6       30.04F

$$

INZ033-034-041-042-049-050-058-059-252100-
EAST CENTRAL INDIANA

CITY           SKY/WX    TMP DP  RH WIND       PRES   REMARKS
MUNCIE         SUNNY     86  62  44 VRB3      30.05F

$$

INZ060-061-067>069-081>083-085>088-252100-
SOUTHWEST INDIANA

CITY           SKY/WX    TMP DP  RH WIND       PRES   REMARKS
EVANSVILLE     SUNNY     91  65  41 CALM      30.03F
HUNTINGBURG *+   N/A     88  64  45 CALM      30.04F

$$

INZ062-063-066-070>080-084-089>092-252100-
SOUTH CENTRAL AND SOUTHEAST INDIANA

CITY           SKY/WX    TMP DP  RH WIND       PRES   REMARKS
BLOOMINGTON    MOSUNNY   87  66  49 S5        30.04F
MADISON *+     SUNNY     88  59  37 CALM      30.07F
SEYMOUR +      SUNNY     86  64  48 E3        30.03F

$$




USA.gov is the U.S. government's official web portal to all federal, state and local government web resources and services.